Home > Weather > Grieskirchen > Past weeks

Flag for Austria Past Weather in Grieskirchen, Upper Austria, Austria — Yesterday and Last 2 Weeks

Now
72 °F

Scattered clouds.


Feels Like: 72 °F
Forecast: 61 / 82 °F
Wind: 6 mph from Northwest

Location: Linz / Hoersching-Flughafen

Current Time: Jul 29, 2016 at 12:14:05 PM

Latest Report: Jul 29, 2016 at 11:20 AM


Visibility: N/A

Pressure: 30.04 "Hg

Humidity: 78%

Dew Point: 64 °F

Location of GrieskirchenLocation

Past Weather in Grieskirchen — Graph

°F

Grieskirchen Temperature Yesterday

Maximum temperature yesterday: 79 °F (at 6:20 PM)
Minimum temperature yesterday: 64 °F (at 12:20 AM)
Average temperature yesterday: 68 °F

High & Low Weather Summary for the Past Weeks

 TemperatureHumidityPressure
High86 °F (Jul 20, 5:20 PM)100% (Jul 18, 4:20 AM)30.30 "Hg (Jul 18, 4:20 AM)
Low52 °F (Jul 15, 2:20 AM)33% (Jul 20, 5:20 PM)29.92 "Hg (Jul 14, 10:20 AM)
Average68 °F76%30.09 "Hg
* Reported Jul 14 10:20 AM — Jul 29 10:50 AM, Grieskirchen, Weather by CustomWeather, © 2016

Note: Actual official high and low records may vary slightly from our data, if they occured in-between our weather recording intervals... More about our weather records

Advertising

Grieskirchen Weather History for the Previous 24 Hours

Scroll right to see more
 ConditionsComfort  
Time TempWeatherWind HumidityBarometerVisibility
10:50 AM
Fri, Jul 29
70 °FScattered clouds.6 mph78%30.04 "HgN/A
10:20 AM70 °FScattered clouds.7 mph78%30.04 "HgN/A
9:50 AM70 °FScattered clouds.12 mph78%30.04 "HgN/A
9:20 AM70 °FScattered clouds.7 mph73%30.04 "HgN/A
8:50 AM66 °FScattered clouds.5 mph88%30.04 "HgN/A
8:20 AM64 °FScattered clouds.3 mph88%30.04 "Hg5 mi
7:50 AM63 °FBroken clouds.3 mph94%30.04 "Hg4 mi
7:20 AM63 °FBroken clouds.2 mph94%30.04 "Hg4 mi
6:50 AM61 °FRain showers. Broken clouds.5 mph94%30.04 "Hg3 mi
6:20 AM61 °FFog.1 mph94%30.04 "Hg4 mi
5:50 AM59 °FFog.1 mph100%30.04 "Hg4 mi
5:20 AM59 °FFog.2 mph100%30.01 "Hg4 mi
4:50 AM61 °FPassing clouds.2 mph94%30.01 "HgN/A
4:20 AM59 °FPassing clouds.1 mph100%30.01 "HgN/A
3:50 AM61 °FPassing clouds.2 mph94%30.04 "HgN/A
3:20 AM61 °FCool.2 mph94%30.04 "HgN/A
2:50 AM61 °FFog.1 mph94%30.01 "Hg4 mi
2:20 AM61 °FFog.2 mph94%30.01 "HgN/A
1:50 AM61 °FCool.5 mph94%30.01 "HgN/A
1:20 AM63 °FMild.5 mph94%30.01 "HgN/A
12:50 AM63 °FMild.1 mph100%30.04 "HgN/A
12:20 AM64 °FPassing clouds.2 mph94%30.01 "HgN/A
11:50 PM
Thu, Jul 28
64 °FPassing clouds.1 mph94%30.04 "HgN/A
11:20 PM66 °FPassing clouds.1 mph88%30.04 "HgN/A
10:50 PM64 °FPassing clouds.1 mph94%30.04 "HgN/A
10:20 PM66 °FPassing clouds.3 mph88%30.04 "HgN/A
9:50 PM64 °FPassing clouds.3 mph94%30.04 "HgN/A
9:20 PM64 °FMild.1 mph94%30.04 "HgN/A
8:50 PM66 °FPartly sunny.3 mph88%30.04 "HgN/A
8:20 PM66 °FPartly sunny.6 mph88%30.04 "HgN/A
7:50 PM72 °FRain showers. Broken clouds.9 mph65%30.04 "Hg4 mi
7:20 PM75 °FPartly sunny.1 mph61%30.01 "HgN/A
6:50 PM77 °FScattered clouds.2 mph54%30.01 "HgN/A
6:20 PM79 °FScattered clouds.5 mph48%30.01 "HgN/A
5:50 PM77 °FScattered clouds.3 mph54%30.01 "HgN/A
5:20 PM77 °FPartly sunny.2 mph54%30.01 "HgN/A
4:50 PM75 °FPartly sunny.3 mph61%30.01 "HgN/A
4:20 PM77 °FScattered clouds.3 mph51%30.04 "HgN/A
3:50 PM75 °FScattered clouds.3 mph61%30.04 "HgN/A
3:20 PM73 °FScattered clouds.5 mph69%30.04 "HgN/A
2:50 PM73 °FSunny.2 mph69%30.04 "Hg10 mi
2:20 PM72 °FPartly sunny.5 mph73%30.07 "HgN/A
1:50 PM72 °FScattered clouds.6 mph69%30.07 "HgN/A
1:20 PM72 °FBroken clouds.3 mph73%30.07 "HgN/A
12:50 PM72 °FBroken clouds.3 mph73%30.09 "HgN/A
12:20 PM70 °FBroken clouds.3 mph78%30.09 "HgN/A
Weather by CustomWeather, © 2016

See weather overviewHow to use our weather pages